No particular awareness of the weather is required.    There are no Weather-warnings


Meteo18 Weather Cam more information Meteo18 Weather Cam


Thunder radar more information blitzortung!


Rain radar more information rain snow radar


Visit our other weather sites:

Template documentation
and downloads

And another site



Weather Underground History page Text

Daily Summary for August 5, 2017 Units:  English    Metric   Both
« Previous Day
Next Day »
Daily Weekly Monthly Yearly Custom
  High: Low: Average:
Temperature: 73.4 °F 62.2 °F 69.3 °F
Dew Point: 64.9 °F 51.6 °F 59 °F
Humidity: 92 % 50 % 71 %
Wind Speed: 11 mph 0 mph 3.5 mph
Wind Gust: 14 mph - -
Wind:- - West
Pressure: 30.2 in 30 in -
Precipitation: 0 in    
Historical Graphs
 
 
Tabular Data for August 5, 2017
Time Temperature Dew Point Pressure Wind Wind Speed Wind Gust Humidity Rainfall Rate (Hourly)
00:02 70.2 °F 63 °F 30 in Calm   1 mph 78 % 0 in
00:07 70.2 °F 62.6 °F 30 in Calm   1 mph 77 % 0 in
00:12 70 °F 62.8 °F 30 in Calm   1 mph 78 % 0 in
00:17 70 °F 62.8 °F 30 in Calm   1 mph 78 % 0 in
00:22 69.6 °F 62.8 °F 30 in Calm   1 mph 79 % 0 in
00:27 69.4 °F 63 °F 30 in Calm   1 mph 80 % 0 in
00:32 69.4 °F 63.3 °F 30 in Calm   1 mph 81 % 0 in
00:42 69.3 °F 63.1 °F 30 in SSW 1 mph 2 mph 81 % 0 in
00:47 69.3 °F 63.1 °F 30 in SSW 1 mph 2 mph 81 % 0 in
00:52 69.4 °F 63 °F 30 in SSW 1 mph 2 mph 80 % 0 in
00:57 69.6 °F 63.1 °F 30 in SSW 2 mph 3 mph 80 % 0 in
01:02 70 °F 63.5 °F 30 in SSW 2 mph 3 mph 80 % 0 in
01:07 70 °F 63.5 °F 30 in South 2 mph 4 mph 80 % 0 in
01:12 70 °F 63.5 °F 30 in SSW 1 mph 4 mph 80 % 0 in
01:17 70 °F 63.9 °F 30 in WSW 5 mph 5 mph 81 % 0 in
01:22 70.2 °F 64 °F 30 in SW 3 mph 5 mph 81 % 0 in
01:27 70.3 °F 63.9 °F 30 in WSW 5 mph 6 mph 80 % 0 in
01:32 70.5 °F 64 °F 30 in SW 3 mph 7 mph 80 % 0 in
01:42 70.5 °F 64 °F 30 in SSW 4 mph 8 mph 80 % 0 in
01:52 70.3 °F 63.9 °F 30 in SW 5 mph 8 mph 80 % 0 in
01:57 70.3 °F 64.2 °F 30 in SW 3 mph 7 mph 81 % 0 in
02:02 70.2 °F 64 °F 30 in SW 4 mph 6 mph 81 % 0 in
02:07 70.2 °F 64 °F 30 in SSW 3 mph 6 mph 81 % 0 in
02:12 70 °F 64.2 °F 30 in SSW 4 mph 6 mph 82 % 0 in
02:17 70 °F 64.2 °F 30 in SSW 2 mph 6 mph 82 % 0 in
02:22 69.8 °F 64 °F 30 in SSW 2 mph 5 mph 82 % 0 in
02:27 69.6 °F 64.2 °F 30 in SW 3 mph 5 mph 83 % 0 in
02:32 69.6 °F 64.2 °F 30 in SW 5 mph 5 mph 83 % 0 in
02:37 69.6 °F 64.2 °F 30 in SW 2 mph 5 mph 83 % 0 in
02:42 69.8 °F 64 °F 30 in SW 3 mph 5 mph 82 % 0 in
02:47 70 °F 63.9 °F 30 in WSW 3 mph 5 mph 81 % 0 in
02:52 70.2 °F 64 °F 30 in SSW 2 mph 5 mph 81 % 0 in
02:57 70.2 °F 64 °F 30 in SW 1 mph 5 mph 81 % 0 in
03:02 70.2 °F 64 °F 30 in South 2 mph 5 mph 81 % 0 in
03:07 70.2 °F 64 °F 30 in SW 2 mph 4 mph 81 % 0 in
03:12 70 °F 64.2 °F 30 in SSW 1 mph 4 mph 82 % 0 in
03:17 70 °F 64.2 °F 30 in SW 3 mph 3 mph 82 % 0 in
03:22 70 °F 64.2 °F 30 in SSW 3 mph 4 mph 82 % 0 in
03:27 70 °F 64.2 °F 30 in SW 2 mph 4 mph 82 % 0 in
03:32 70 °F 64.2 °F 30 in SW 2 mph 4 mph 82 % 0 in
03:37 69.8 °F 64.4 °F 30 in SSW 2 mph 4 mph 83 % 0 in
03:42 69.6 °F 64.2 °F 30 in SW 2 mph 4 mph 83 % 0 in
03:47 69.8 °F 64 °F 30 in SW 3 mph 6 mph 82 % 0 in
03:52 70.2 °F 64 °F 30 in WSW 4 mph 6 mph 81 % 0 in
03:57 70.2 °F 64 °F 30 in WSW 4 mph 8 mph 81 % 0 in
04:02 70.2 °F 64 °F 30 in SSW 1 mph 8 mph 81 % 0 in
04:07 70.2 °F 64 °F 30 in SW 4 mph 7 mph 81 % 0 in
04:12 70.2 °F 64 °F 30 in SSW 3 mph 7 mph 81 % 0 in
04:17 70 °F 63.9 °F 30 in SSW 3 mph 6 mph 81 % 0 in
04:22 70 °F 63.9 °F 30 in SW 1 mph 7 mph 81 % 0 in
04:32 70 °F 64.2 °F 30 in SW 3 mph 9 mph 82 % 0 in
04:37 70 °F 64.2 °F 30 in SW 2 mph 9 mph 82 % 0 in
04:42 69.8 °F 64 °F 30 in SW 4 mph 9 mph 82 % 0 in
04:47 69.6 °F 63.9 °F 30 in SW 4 mph 8 mph 82 % 0 in
04:52 69.6 °F 64.2 °F 30 in South 2 mph 8 mph 83 % 0 in
04:57 69.4 °F 64 °F 30 in SSW 3 mph 8 mph 83 % 0 in
05:02 69.4 °F 64.4 °F 30 in SSW 4 mph 8 mph 84 % 0 in
05:12 69.3 °F 64.6 °F 30 in WSW 6 mph 8 mph 85 % 0 in
05:22 68.5 °F 64.6 °F 30 in WSW 6 mph 9 mph 87 % 0 in
05:27 68.2 °F 64.4 °F 30 in SW 3 mph 9 mph 88 % 0 in
05:37 67.6 °F 64.6 °F 30 in WSW 3 mph 8 mph 90 % 0 in
05:42 67.5 °F 64.8 °F 30 in WSW 4 mph 6 mph 91 % 0 in
05:47 67.5 °F 64.8 °F 30 in SW 4 mph 6 mph 91 % 0 in
05:52 67.3 °F 64.9 °F 30 in SSW 5 mph 8 mph 92 % 0 in
05:57 67.3 °F 64.9 °F 30 in SSW 4 mph 8 mph 92 % 0 in
06:02 67.3 °F 64.9 °F 30 in WSW 5 mph 8 mph 92 % 0 in
06:07 67.3 °F 64.9 °F 30 in WSW 6 mph 8 mph 92 % 0 in
06:12 67.3 °F 64.9 °F 30 in SSW 4 mph 9 mph 92 % 0 in
06:17 67.3 °F 64.9 °F 30 in SW 5 mph 9 mph 92 % 0 in
06:22 67.3 °F 64.9 °F 30 in SW 5 mph 9 mph 92 % 0 in
06:32 67.5 °F 64.8 °F 30 in SW 4 mph 8 mph 91 % 0 in
06:42 67.5 °F 64.8 °F 30 in WSW 3 mph 8 mph 91 % 0 in
06:47 67.5 °F 64.8 °F 30 in West 4 mph 8 mph 91 % 0 in
06:52 67.6 °F 64.6 °F 30 in WSW 6 mph 8 mph 90 % 0 in
06:57 67.6 °F 64.6 °F 30 in SW 5 mph 9 mph 90 % 0 in
07:02 67.6 °F 64.6 °F 30 in WSW 9 mph 10 mph 90 % 0 in
07:07 67.6 °F 64.2 °F 30 in SW 8 mph 13 mph 89 % 0 in
07:12 67.6 °F 64.2 °F 30 in WSW 8 mph 13 mph 89 % 0 in
07:17 67.6 °F 64.2 °F 30 in SW 5 mph 13 mph 89 % 0 in
07:22 67.6 °F 64 °F 30 in SW 9 mph 10 mph 88 % 0 in
07:27 67.6 °F 64 °F 30 in WSW 6 mph 10 mph 88 % 0 in
07:32 67.6 °F 64 °F 30 in WNW 4 mph 11 mph 88 % 0 in
07:37 67.6 °F 64 °F 30 in West 5 mph 11 mph 88 % 0 in
07:42 67.6 °F 64 °F 30 in West 6 mph 13 mph 88 % 0 in
07:47 67.6 °F 64 °F 30 in WSW 7 mph 13 mph 88 % 0 in
07:52 67.6 °F 64 °F 30 in SW 1 mph 11 mph 88 % 0 in
07:57 67.5 °F 64 °F 30 in West 3 mph 9 mph 89 % 0 in
08:02 67.3 °F 63.9 °F 30.1 in West 4 mph 12 mph 89 % 0 in
08:07 66.9 °F 63.9 °F 30.1 in SW 5 mph 12 mph 90 % 0 in
08:12 66.6 °F 63.9 °F 30.1 in WSW 3 mph 12 mph 91 % 0 in
08:17 66.4 °F 64 °F 30.1 in SW 7 mph 11 mph 92 % 0 in
08:22 66.2 °F 63.5 °F 30.1 in West 5 mph 14 mph 91 % 0 in
08:27 66 °F 63 °F 30.1 in WNW 5 mph 14 mph 90 % 0 in
08:32 66 °F 63 °F 30.1 in WSW 11 mph 14 mph 90 % 0 in
08:37 66 °F 62.6 °F 30.1 in West 2 mph 11 mph 89 % 0 in
08:42 66 °F 62.6 °F 30.1 in WSW 4 mph 11 mph 89 % 0 in
08:47 66 °F 62.4 °F 30.1 in WSW 7 mph 11 mph 88 % 0 in
08:52 66 °F 62.6 °F 30.1 in West 6 mph 9 mph 89 % 0 in
08:57 66 °F 62.4 °F 30.1 in West 6 mph 11 mph 88 % 0 in
09:02 66.4 °F 63 °F 30.1 in WSW 3 mph 11 mph 89 % 0 in
09:12 66.7 °F 63.3 °F 30.1 in West 5 mph 11 mph 89 % 0 in
09:17 66.7 °F 62.8 °F 30.1 in WSW 7 mph 11 mph 87 % 0 in
09:22 66.9 °F 63 °F 30.1 in WSW 6 mph 11 mph 87 % 0 in
09:27 67.3 °F 63 °F 30.1 in WNW 5 mph 9 mph 86 % 0 in
09:32 67.5 °F 62.1 °F 30.1 in West 6 mph 11 mph 83 % 0 in
09:37 67.5 °F 61.7 °F 30.1 in WSW 5 mph 12 mph 82 % 0 in
09:42 67.6 °F 62.2 °F 30.1 in West 7 mph 12 mph 83 % 0 in
09:47 67.6 °F 61.9 °F 30.1 in WNW 5 mph 12 mph 82 % 0 in
09:52 67.8 °F 62.1 °F 30.1 in WNW 7 mph 10 mph 82 % 0 in
09:57 68.2 °F 62.1 °F 30.1 in West 3 mph 11 mph 81 % 0 in
10:02 68.5 °F 62.1 °F 30.1 in West 5 mph 12 mph 80 % 0 in
10:07 68.7 °F 61.5 °F 30.1 in SW 7 mph 12 mph 78 % 0 in
10:12 69.1 °F 61.5 °F 30.1 in NW 5 mph 12 mph 77 % 0 in
10:17 68.5 °F 60.6 °F 30.1 in NW 4 mph 12 mph 76 % 0 in
10:22 68.4 °F 60.8 °F 30.1 in West 7 mph 12 mph 77 % 0 in
10:27 68.7 °F 61.2 °F 30.1 in West 9 mph 12 mph 77 % 0 in
10:32 68.9 °F 60.3 °F 30.1 in WSW 5 mph 11 mph 74 % 0 in
10:37 69.4 °F 60.8 °F 30.1 in SW 6 mph 11 mph 74 % 0 in
10:42 69.3 °F 59.9 °F 30.1 in SW 9 mph 11 mph 72 % 0 in
10:47 69.3 °F 60.6 °F 30.1 in SSW 4 mph 11 mph 74 % 0 in
10:57 69.3 °F 59.9 °F 30.1 in WSW 6 mph 11 mph 72 % 0 in
11:02 69.4 °F 60.1 °F 30.1 in West 4 mph 9 mph 72 % 0 in
11:07 69.3 °F 59 °F 30.1 in WSW 6 mph 9 mph 70 % 0 in
11:12 69.4 °F 59.5 °F 30.1 in West 5 mph 11 mph 71 % 0 in
11:17 70 °F 59 °F 30.1 in South 4 mph 11 mph 68 % 0 in
11:22 70.2 °F 59.2 °F 30.1 in West 5 mph 11 mph 68 % 0 in
11:27 70.3 °F 58.1 °F 30.1 in West 7 mph 12 mph 65 % 0 in
11:32 69.8 °F 58.3 °F 30.1 in West 1 mph 14 mph 67 % 0 in
11:42 69.4 °F 58.8 °F 30.1 in WNW 3 mph 14 mph 69 % 0 in
11:47 70 °F 59.4 °F 30.1 in Calm   10 mph 69 % 0 in
11:52 71.2 °F 58.8 °F 30.1 in WNW 8 mph 8 mph 65 % 0 in
11:57 71.4 °F 58.6 °F 30.1 in WNW 3 mph 11 mph 64 % 0 in
12:02 71.8 °F 59 °F 30.1 in WNW 6 mph 14 mph 64 % 0 in
12:07 70.7 °F 58.8 °F 30.1 in NW 8 mph 14 mph 66 % 0 in
12:12 71.1 °F 58.3 °F 30.1 in WNW 5 mph 14 mph 64 % 0 in
12:17 72 °F 59.2 °F 30.1 in WSW 2 mph 13 mph 64 % 0 in
12:22 72.3 °F 58.6 °F 30.1 in WNW 7 mph 11 mph 62 % 0 in
12:32 71.8 °F 57.2 °F 30.1 in West 4 mph 10 mph 60 % 0 in
12:42 72 °F 58.3 °F 30.1 in NNW 3 mph 13 mph 62 % 0 in
12:47 71.4 °F 57.2 °F 30.1 in West 3 mph 13 mph 61 % 0 in
12:52 71.6 °F 57 °F 30.1 in NW 5 mph 13 mph 60 % 0 in
13:02 71.8 °F 57.6 °F 30.1 in WNW 4 mph 13 mph 61 % 0 in
13:07 72.1 °F 57.9 °F 30.1 in West 3 mph 13 mph 61 % 0 in
13:12 72.5 °F 57.4 °F 30.1 in West 5 mph 14 mph 59 % 0 in
13:17 72.5 °F 57.7 °F 30.1 in NNE 4 mph 14 mph 60 % 0 in
13:22 72.5 °F 57.7 °F 30.1 in West 5 mph 14 mph 60 % 0 in
13:27 72.1 °F 57 °F 30.1 in WNW 4 mph 14 mph 59 % 0 in
13:32 72.1 °F 56.5 °F 30.1 in West 7 mph 14 mph 58 % 0 in
13:37 72 °F 57.7 °F 30.1 in WNW 11 mph 14 mph 61 % 0 in
13:42 71.8 °F 57.6 °F 30.1 in WNW 5 mph 13 mph 61 % 0 in
13:47 71.4 °F 57.2 °F 30.1 in West 5 mph 12 mph 61 % 0 in
13:52 71.2 °F 56.1 °F 30.1 in NW 6 mph 13 mph 59 % 0 in
13:57 71.4 °F 56.8 °F 30.1 in WNW 3 mph 14 mph 60 % 0 in
14:02 71.4 °F 56.8 °F 30.1 in West 3 mph 14 mph 60 % 0 in
14:07 71.2 °F 56.1 °F 30.1 in NW 6 mph 13 mph 59 % 0 in
14:12 71.1 °F 55.6 °F 30.1 in WNW 9 mph 11 mph 58 % 0 in
14:17 71.1 °F 55.6 °F 30.1 in WNW 5 mph 12 mph 58 % 0 in
14:22 71.1 °F 55.6 °F 30.1 in WNW 4 mph 12 mph 58 % 0 in
14:27 71.1 °F 55.6 °F 30.1 in NW 5 mph 13 mph 58 % 0 in
14:32 71.1 °F 55 °F 30.1 in WNW 4 mph 13 mph 57 % 0 in
14:37 71.1 °F 55.6 °F 30.1 in NW 7 mph 13 mph 58 % 0 in
14:42 70.9 °F 55.4 °F 30.1 in WSW 6 mph 11 mph 58 % 0 in
14:47 71.1 °F 55.6 °F 30.1 in WNW 6 mph 11 mph 58 % 0 in
14:52 70.9 °F 55.8 °F 30.1 in WSW 8 mph 10 mph 59 % 0 in
14:57 71.1 °F 55.9 °F 30.1 in West 4 mph 12 mph 59 % 0 in
15:02 71.2 °F 55.8 °F 30.1 in West 6 mph 12 mph 58 % 0 in
15:07 71.1 °F 55.9 °F 30.1 in West 2 mph 10 mph 59 % 0 in
15:12 71.1 °F 55.6 °F 30.1 in WSW 3 mph 12 mph 58 % 0 in
15:17 71.1 °F 55.6 °F 30.1 in WNW 3 mph 12 mph 58 % 0 in
15:22 71.2 °F 55.8 °F 30.1 in WNW 7 mph 12 mph 58 % 0 in
15:27 71.4 °F 55.9 °F 30.1 in West 5 mph 12 mph 58 % 0 in
15:32 72 °F 56.3 °F 30.1 in West 4 mph 11 mph 58 % 0 in
15:37 72.3 °F 56.3 °F 30.1 in WNW 6 mph 10 mph 57 % 0 in
15:42 71.8 °F 55.8 °F 30.1 in WNW 3 mph 11 mph 57 % 0 in
15:47 71.8 °F 56.1 °F 30.1 in West 6 mph 11 mph 58 % 0 in
15:52 71.8 °F 56.1 °F 30.1 in West 6 mph 11 mph 58 % 0 in
16:02 71.8 °F 56.7 °F 30.1 in West 1 mph 13 mph 59 % 0 in
16:07 71.8 °F 56.1 °F 30.1 in WNW 4 mph 13 mph 58 % 0 in
16:12 71.8 °F 56.7 °F 30.1 in NNW 3 mph 11 mph 59 % 0 in
16:17 71.8 °F 57.2 °F 30.1 in WNW 7 mph 11 mph 60 % 0 in
16:22 71.4 °F 56.8 °F 30.1 in WNW 3 mph 11 mph 60 % 0 in
16:27 71.2 °F 56.1 °F 30.1 in WNW 3 mph 10 mph 59 % 0 in
16:32 70.9 °F 56.8 °F 30.1 in WNW 9 mph 14 mph 61 % 0 in
16:42 71.1 °F 55.9 °F 30.1 in WNW 4 mph 14 mph 59 % 0 in
16:47 71.2 °F 56.7 °F 30.1 in WNW 8 mph 10 mph 60 % 0 in
16:52 71.4 °F 56.3 °F 30.1 in WSW 2 mph 10 mph 59 % 0 in
16:57 71.4 °F 56.3 °F 30.1 in WNW 4 mph 11 mph 59 % 0 in
17:02 71.6 °F 56.5 °F 30.1 in WNW 3 mph 11 mph 59 % 0 in
17:07 71.4 °F 56.8 °F 30.1 in NNW 1 mph 11 mph 60 % 0 in
17:12 72 °F 56.3 °F 30.1 in NNW 5 mph 7 mph 58 % 0 in
17:17 71.8 °F 56.1 °F 30.1 in WNW 3 mph 9 mph 58 % 0 in
17:22 72 °F 56.3 °F 30.1 in WNW 6 mph 10 mph 58 % 0 in
17:27 72.9 °F 56.3 °F 30.1 in West 8 mph 11 mph 56 % 0 in
17:32 72.7 °F 55.6 °F 30.1 in WNW 2 mph 11 mph 55 % 0 in
17:37 72.7 °F 56.1 °F 30.1 in NW 3 mph 11 mph 56 % 0 in
17:42 72.9 °F 55.2 °F 30.1 in WNW 3 mph 10 mph 54 % 0 in
17:47 72.9 °F 54.7 °F 30.1 in West 1 mph 10 mph 53 % 0 in
17:52 73.4 °F 54.1 °F 30.1 in WNW 3 mph 14 mph 51 % 0 in
17:57 73.2 °F 53.4 °F 30.1 in West 5 mph 14 mph 50 % 0 in
18:02 72.9 °F 54.1 °F 30.1 in West 8 mph 14 mph 52 % 0 in
18:07 72.3 °F 53.8 °F 30.1 in WNW 4 mph 12 mph 52 % 0 in
18:17 72 °F 53.4 °F 30.1 in West 4 mph 9 mph 52 % 0 in
18:22 72 °F 53.4 °F 30.1 in NW 6 mph 6 mph 52 % 0 in
18:27 71.8 °F 53.2 °F 30.1 in WNW 3 mph 9 mph 52 % 0 in
18:32 71.6 °F 53.1 °F 30.1 in NW 3 mph 9 mph 52 % 0 in
18:42 71.4 °F 52.9 °F 30.1 in WNW 3 mph 8 mph 52 % 0 in
18:47 71.4 °F 53.4 °F 30.2 in NNW 1 mph 7 mph 53 % 0 in
18:57 71.2 °F 53.2 °F 30.2 in West 2 mph 7 mph 53 % 0 in
19:02 71.2 °F 53.8 °F 30.2 in West 2 mph 7 mph 54 % 0 in
19:07 71.1 °F 53.6 °F 30.2 in NW 2 mph 7 mph 54 % 0 in
19:12 71.1 °F 53.6 °F 30.2 in NW 2 mph 6 mph 54 % 0 in
19:17 71.1 °F 54.1 °F 30.2 in WNW 3 mph 6 mph 55 % 0 in
19:22 71.1 °F 54.1 °F 30.2 in NW 2 mph 6 mph 55 % 0 in
19:27 71.1 °F 54.1 °F 30.2 in NW 2 mph 5 mph 55 % 0 in
19:32 71.4 °F 54 °F 30.2 in WNW 1 mph 5 mph 54 % 0 in
19:37 71.8 °F 54.3 °F 30.2 in WNW 2 mph 6 mph 54 % 0 in
19:42 71.4 °F 53.4 °F 30.2 in NNW 3 mph 7 mph 53 % 0 in
19:47 71.4 °F 54 °F 30.2 in Calm   7 mph 54 % 0 in
19:52 71.4 °F 53.4 °F 30.2 in NW 4 mph 7 mph 53 % 0 in
19:57 71.2 °F 53.8 °F 30.2 in WNW 2 mph 6 mph 54 % 0 in
20:02 71.2 °F 53.8 °F 30.2 in WNW 1 mph 6 mph 54 % 0 in
20:07 71.2 °F 53.8 °F 30.2 in NW 3 mph 6 mph 54 % 0 in
20:12 71.4 °F 54 °F 30.2 in WNW 1 mph 5 mph 54 % 0 in
20:17 71.4 °F 54 °F 30.2 in Calm   5 mph 54 % 0 in
20:22 71.2 °F 53.2 °F 30.2 in WSW 2 mph 5 mph 53 % 0 in
20:27 70.9 °F 52.9 °F 30.2 in West 2 mph 5 mph 53 % 0 in
20:32 70.7 °F 53.2 °F 30.2 in West 1 mph 5 mph 54 % 0 in
20:37 70.5 °F 53.6 °F 30.2 in West 1 mph 5 mph 55 % 0 in
20:47 70.2 °F 53.8 °F 30.2 in Calm   3 mph 56 % 0 in
20:52 70.3 °F 54 °F 30.2 in West 1 mph 3 mph 56 % 0 in
20:57 70.3 °F 54.3 °F 30.2 in West 1 mph 3 mph 57 % 0 in
21:02 70 °F 54.5 °F 30.2 in Calm   2 mph 58 % 0 in
21:07 69.6 °F 54.7 °F 30.2 in Calm   1 mph 59 % 0 in
21:12 69.3 °F 54.9 °F 30.2 in Calm   1 mph 60 % 0 in
21:17 68.7 °F 54.7 °F 30.2 in Calm   1 mph 61 % 0 in
21:22 68.4 °F 54.9 °F 30.2 in Calm     62 % 0 in
21:27 68 °F 54.9 °F 30.2 in Calm     63 % 0 in
21:32 67.6 °F 55 °F 30.2 in Calm     64 % 0 in
21:37 66.9 °F 54.9 °F 30.2 in Calm     65 % 0 in
21:42 66.6 °F 54.9 °F 30.2 in Calm     66 % 0 in
21:47 66.2 °F 54.9 °F 30.2 in Calm     67 % 0 in
21:52 65.8 °F 55 °F 30.2 in WNW 2 mph   68 % 0 in
21:57 65.5 °F 54.7 °F 30.2 in WNW 2 mph 2 mph 68 % 0 in
22:02 65.1 °F 54.3 °F 30.2 in Calm   2 mph 68 % 0 in
22:07 64.8 °F 54.3 °F 30.2 in West 1 mph 2 mph 69 % 0 in
22:12 64.6 °F 54.1 °F 30.2 in NW 2 mph 2 mph 69 % 0 in
22:17 64.2 °F 53.8 °F 30.2 in WNW 1 mph 3 mph 69 % 0 in
22:22 63.9 °F 54 °F 30.2 in Calm   3 mph 70 % 0 in
22:27 63.7 °F 54.1 °F 30.2 in WNW 1 mph 3 mph 71 % 0 in
22:32 63.7 °F 54.1 °F 30.2 in Calm   2 mph 71 % 0 in
22:37 63.5 °F 54 °F 30.2 in Calm   2 mph 71 % 0 in
22:42 63.3 °F 53.8 °F 30.2 in WNW 1 mph 2 mph 71 % 0 in
22:47 63 °F 53.4 °F 30.2 in WNW 1 mph 2 mph 71 % 0 in
22:52 62.8 °F 53.6 °F 30.2 in West 1 mph 2 mph 72 % 0 in
22:57 62.8 °F 53.6 °F 30.2 in WNW 3 mph 3 mph 72 % 0 in
23:02 62.6 °F 53.4 °F 30.2 in WNW 2 mph 3 mph 72 % 0 in
23:07 62.4 °F 53.6 °F 30.2 in WNW 3 mph 3 mph 73 % 0 in
23:12 62.2 °F 53.1 °F 30.2 in WNW 1 mph 3 mph 72 % 0 in
23:17 62.4 °F 52.9 °F 30.2 in NW 2 mph 3 mph 71 % 0 in
23:22 62.6 °F 53.1 °F 30.2 in NW 4 mph 4 mph 71 % 0 in
23:27 62.8 °F 52.5 °F 30.2 in WNW 4 mph 6 mph 69 % 0 in
23:32 63 °F 52.2 °F 30.2 in WNW 4 mph 6 mph 68 % 0 in
23:37 63.1 °F 52 °F 30.2 in WNW 1 mph 6 mph 67 % 0 in
23:42 63.1 °F 51.6 °F 30.2 in WNW 2 mph 6 mph 66 % 0 in
23:47 63.1 °F 51.6 °F 30.2 in WNW 1 mph 7 mph 66 % 0 in
23:52 63.1 °F 51.6 °F 30.2 in WNW 1 mph 7 mph 66 % 0 in
23:57 63.1 °F 51.6 °F 30.2 in West 1 mph 7 mph 66 % 0 in
Meteo18
Compliments of Weather Underground - 4 mb

Script developed by  Jim McMurry - jmcmurry@mwt.net Adapted for the template by  Wim van der Kuil - Leuven-Template.eu

You find our weather info also at:

European Weather Network

Weather Underground

Equipment we use:

Weather-station
Davis Vue

Weather-program
Meteohub

Weather-server
Raspberry PI 2 B+

Provider
1 and 1

Davis Vue

Meteohub

Raspberry PI 2 B+

1 and 1